Dewpoint
15 17 15 15 15 14 15 13 12 13 13 13 12 13 13 12 16 12 10 9 13 7 7 9 6 9 9 4 3 2 5 11 19 12 15 13 16 14 15 12 12 14 18 14 12 18 12 10 9 9 9 12 9 8 9 10 11 6 7 8 9 5 3 13 3 4 2 -5 6 5 1 2 13 15 18 18 10 12 13 18 21 13 15 16 16
15 14 14 15 16 15 14 14 18 12 12 11 12 12 13 13 12 11 11 8 7 6 9 13 11 10 5 5 4 2 3 2 0 5 13 15 16 12 14 11 11 10 17 13 13 9 9 10 10 7 8 11 7 7 8 9 8 3 3 5 6 5 4 12 3 4 -10 -4 -4 -6 1 6 16 19 13 9 5 10 17 17 15 11 13 15 15
14 14 14 14 15 15 15 14 13 13 12 12 12 12 12 12 12 13 12 10 8 9 12 7 7 13 9 6 4 2 5 6 5 9 12 17 13 11 11 10 8 8 12 19 11 9 6 8 8 7 6 10 5 6 7 6 7 3 3 4 1 2 6 10 2 6 -9 -4 3 5 -3 1 5 11 9 10 4 12 11 16 12 10 13 13 13
15 15 15 14 14 14 15 15 14 13 13 12 12 12 12 15 12 12 12 12 11 11 19 11 10 6 10 9 10 7 5 12 13 13 13 14 13 10 9 7 6 4 9 15 13 10 7 6 7 6 6 9 6 4 6 5 6 2 4 -1 1 -3 -0 2 6 6 5 4 -3 -0 -1 1 -14 7 -1 -1 5 10 7 13 8 9 9 9 8
16 16 16 15 14 14 14 15 15 14 13 12 12 12 13 14 14 13 12 12 12 17 15 17 17 15 11 10 13 10 7 7 4 2 4 8 10 6 3 6 5 4 7 10 17 8 8 6 6 5 4 6 6 5 3 5 4 2 4 -2 -5 -5 -2 -2 2 6 4 8 2 -3 -6 -1 -5 2 -2 -7 3 -3 3 3 10 6 5 8 6
16 16 16 16 16 15 15 15 14 14 14 13 13 13 14 14 15 14 14 14 13 13 14 15 16 11 7 3 2 0 0 -1 -1 0 -0 0 4 6 3 4 1 3 6 8 13 14 8 7 5 4 4 7 7 6 5 3 1 0 4 -5 -6 1 -0 0 -5 2 7 6 11 10 5 -1 1 2 -9 -12 7 2 4 5 2 5 3 3 6
17 16 16 16 16 16 16 15 14 14 14 14 14 14 14 14 14 15 15 15 14 14 14 16 11 10 8 5 4 4 4 4 2 1 0 0 2 4 5 1 0 -2 0 3 11 13 7 7 4 2 3 -4 5 3 0 -0 -3 -1 1 -3 -6 2 -5 -5 -5 -1 -0 2 4 2 2 4 1 0 -3 -3 -8 -7 -0 -1 -1 3 3 1 6
17 17 17 16 16 16 16 16 15 15 15 15 16 16 15 15 15 15 15 17 16 15 14 14 12 10 8 6 7 3 2 5 5 0 -1 6 1 3 1 -1 -3 -4 -7 -0 2 11 8 4 2 1 -2 -8 5 -2 -6 -5 -6 -7 -3 -2 -5 -6 -6 -5 -3 -5 -3 -1 1 -0 -0 0 -3 -0 -0 -1 -4 -5 -8 -6 -3 0 -1 0 7
18 18 17 17 17 17 17 17 17 17 17 17 17 16 16 16 16 16 15 15 16 16 16 14 17 13 10 8 5 8 5 3 4 10 8 4 2 -0 -0 -3 -5 -7 -9 -7 -1 4 14 3 -2 -3 -6 -11 7 -2 -6 -8 -10 -11 -11 -10 -8 -8 -7 -2 -3 -5 -2 -3 -3 -4 -2 -5 -2 1 -1 -1 1 -2 -4 -5 -4 -2 -5 -2 -2
20 18 18 18 18 18 17 17 18 18 18 18 19 18 17 17 17 17 15 15 15 15 17 15 14 16 13 10 8 7 7 6 5 2 0 1 1 1 -1 -3 -6 -8 -9 -11 -5 1 8 4 -4 -8 -8 -11 7 -8 -10 -11 -10 -11 -10 -10 -8 -7 -6 -5 -4 -1 -1 0 -4 -4 -5 -3 -3 -2 -1 -1 -1 0 -1 -2 -3 -5 -7 -5 -4
21 20 20 19 19 19 18 18 19 19 18 18 18 18 18 18 17 17 16 16 16 16 15 15 15 13 14 13 11 9 8 5 3 3 3 0 0 0 0 -2 -5 -8 -10 -8 -9 -2 4 4 -5 -10 -8 2 7 -9 -10 -10 -9 -10 -10 -9 -9 -8 -8 -4 -6 -5 -2 -2 -5 -4 -4 -4 -4 -6 -5 -4 -4 -4 -5 -7 -7 -4 -4 -5 -5
20 20 20 20 21 21 20 19 20 20 20 19 19 19 19 18 18 18 17 17 17 17 16 15 15 14 13 13 12 11 10 8 5 4 4 3 1 -1 -2 -3 -4 -7 -10 -10 -10 -5 -0 2 -0 -7 -3 -3 -2 -9 -10 -10 -9 -8 -9 -8 -8 -9 -9 -3 -7 -5 -8 -6 -6 -6 -5 -2 -5 -6 -6 -5 -5 -5 -5 -5 -4 -4 -4 -3 -2
20 20 20 21 20 21 21 21 21 22 21 21 21 20 19 19 18 18 18 18 18 17 16 16 15 14 14 13 12 12 11 9 6 5 4 2 1 -0 -3 -5 -6 -7 -9 -10 -9 -8 -6 -2 -5 -8 -4 -5 -8 -9 -9 -9 -8 -9 -9 -7 -8 -9 -8 -8 -7 -8 -6 -8 -7 -5 -5 -6 -7 -7 -7 -5 -4 -2 -3 -4 -4 -4 -4 -4 -4
18 19 20 20 21 21 21 22 22 22 22 23 22 23 21 20 19 19 18 18 18 18 17 17 16 15 15 14 13 12 11 10 8 6 5 3 1 -0 -1 -3 -5 -7 -9 -10 -11 -10 -6 -4 -4 -9 -8 -6 -7 -9 -9 -9 -9 -10 -8 -9 -10 -9 -9 -9 -8 -6 -6 -6 -6 -6 -7 -6 -5 -4 -5 -5 -5 -5 -5 -5 -3 -3 -4 -6 -7
17 18 18 20 21 20 21 22 22 23 23 23 23 23 22 21 20 19 19 19 18 18 18 18 17 17 16 15 14 13 12 11 9 8 6 5 3 1 -1 -3 -5 -6 -8 -10 -7 -10 -7 -9 -9 -9 -11 -9 -5 -6 -4 -5 -3 -4 -4 -7 -6 -9 -8 -5 -7 -7 -8 -8 -8 -7 -5 -5 -3 -4 -4 -5 -5 -5 -4 -4 -6 -7 -5 -5 -6
17 17 18 19 20 21 21 22 22 23 23 23 22 23 23 23 22 21 20 19 19 19 18 18 18 18 17 17 16 15 15 13 12 10 9 7 4 3 1 -2 1 -6 -7 -7 -8 -9 -6 -9 -7 -10 -10 -9 -6 -7 -7 -7 -8 -7 -7 -6 -7 -7 -9 -9 -9 -9 -9 -8 -8 -7 -7 -6 -5 -5 -4 -3 -2 -2 -3 -5 -6 -5 -7 -7 -8
16 17 16 19 19 21 21 21 21 21 21 21 22 23 23 23 23 22 22 22 21 21 20 19 19 18 18 17 17 16 15 14 13 12 10 9 6 4 0 0 -4 -5 -4 -3 -6 -7 -6 -7 -6 -7 -8 -8 -8 -8 -9 -9 -9 -7 -7 -8 -8 -9 -8 -10 -10 -9 -9 -9 -8 -8 -5 -4 -4 -3 -2 -1 -3 -3 -2 -3 -2 -3 -2 -4 -8
16 17 17 19 19 20 19 19 20 20 21 21 21 21 20 21 21 20 20 20 21 22 22 22 21 20 20 19 18 18 17 16 14 13 14 11 8 7 -2 -0 4 -2 -1 -0 -2 -2 -2 1 -4 -5 -7 -8 -9 -9 -9 -9 -9 -9 -9 -10 -10 -9 -9 -8 -9 -9 -9 -9 -8 -7 -4 -3 -2 -4 -3 -4 -1 -2 -3 -3 -2 -2 -2 -3 -4
14 15 16 18 17 17 18 18 19 19 18 17 16 15 14 14 14 13 13 12 13 13 14 17 20 21 21 21 20 19 18 18 17 17 14 12 10 7 2 4 1 2 4 3 1 -0 -2 -1 -4 -5 -5 -7 -8 -9 -9 -10 -10 -9 -10 -10 -11 -11 -11 -9 -9 -9 -9 -9 -8 -8 -7 -5 -6 -4 -3 -2 -2 -2 -3 -3 -3 -3 -3 -3 -2
14 15 15 16 16 17 18 17 16 15 14 13 12 12 11 10 9 8 7 6 6 6 7 8 9 11 13 15 18 20 21 20 18 16 15 14 12 8 3 4 4 8 7 5 6 2 1 -0 -1 -3 -5 -6 -8 -9 -9 -10 -10 -10 -10 -9 -10 -11 -11 -11 -11 -10 -10 -10 -10 -10 -9 -8 -7 -6 -3 -3 -3 -3 -3 -3 -4 -4 -3 -3 -2
16 15 14 15 15 16 16 15 13 12 12 11 10 9 9 7 5 4 4 5 6 7 7 7 8 9 11 11 13 16 18 19 19 17 15 13 8 7 5 8 10 8 9 7 7 6 2 1 -1 -2 -5 -7 -8 -8 -9 -10 -10 -9 -9 -10 -11 -11 -11 -11 -10 -11 -10 -10 -9 -8 -8 -8 -8 -5 -4 -3 -3 -3 -3 -3 -3 -2 -3 -3 -3
14 14 14 15 15 15 14 12 11 10 9 9 8 7 6 4 4 4 6 6 6 6 6 5 5 5 5 6 8 12 12 17 17 17 13 8 6 7 7 10 9 9 9 8 7 6 5 -0 -2 -3 -5 -7 -7 -8 -9 -9 -9 -9 -10 -10 -11 -11 -11 -11 -10 -11 -10 -10 -10 -9 -7 -8 -8 -5 -4 -4 -4 -3 -4 -3 -2 -2 -2 -3 -1
13 14 14 15 14 13 11 11 10 9 8 8 7 6 5 4 4 6 7 6 6 5 4 4 3 2 2 3 4 4 8 10 13 11 5 6 6 9 10 10 10 10 10 8 6 5 2 -0 -2 -3 -2 -6 -7 -8 -8 -8 -9 -9 -10 -10 -10 -10 -11 -10 -10 -9 -9 -8 -6 -6 -8 -7 -6 -6 -5 -5 -4 -4 -3 -3 -4 -3 -4 -3 -3
13 14 16 15 12 10 9 9 8 7 7 7 6 5 4 4 5 7 7 6 5 4 4 3 2 1 1 0 -0 2 3 4 4 4 6 7 9 10 12 11 10 10 8 8 4 2 1 -1 -3 -4 -5 -6 -7 -6 -6 -4 -8 -9 -10 -10 -10 -10 -10 -9 -9 -9 -6 -6 -6 -7 -6 -7 -6 -6 -6 -6 -4 -4 -4 -3 -4 -4 -4 -4 -4
14 16 15 13 10 9 8 8 7 7 7 6 5 4 5 5 6 7 6 6 5 5 4 3 2 2 3 2 1 3 4 5 6 7 6 5 6 8 11 10 10 9 7 5 3 0 -1 -2 -4 -5 -5 -7 -7 -6 -6 -6 -7 -8 -9 -9 -9 -8 -8 -7 -7 -7 -5 -5 -5 -6 -6 -5 -5 -6 -6 -6 -6 -6 -5 -5 -5 -4 -3 -3 -3
16 14 12 10 9 8 7 7 7 7 7 5 4 4 5 5 6 7 7 6 6 5 5 4 3 3 2 3 3 4 5 6 7 7 6 7 8 9 10 9 8 5 3 3 1 -1 -2 -4 -5 -5 -6 -6 -7 -7 -5 -6 -8 -7 -7 -7 -8 -7 -7 -6 -6 -6 -6 -5 -5 -5 -5 -5 -6 -7 -7 -7 -6 -7 -6 -6 -5 -5 -4 -4 -3
15 12 11 10 8 7 6 6 7 7 7 5 4 4 5 5 6 7 7 7 7 7 6 5 5 5 4 5 5 6 7 8 9 9 10 10 10 9 7 5 5 3 0 -0 -1 -2 -2 -4 -5 -5 -6 -6 -5 -5 -6 -7 -7 -8 -9 -9 -8 -7 -7 -7 -7 -6 -6 -5 -5 -6 -6 -6 -7 -7 -8 -8 -8 -8 -7 -7 -6 -6 -5 -5 -5
12 10 9 8 8 6 6 6 7 8 7 5 4 5 5 5 5 7 8 8 8 8 7 5 5 6 6 7 7 8 8 8 9 9 9 8 6 4 3 3 2 0 0 -1 -2 -1 -3 -4 -6 -6 -6 -4 -3 -3 -5 -6 -6 -9 -10 -9 -8 -7 -7 -8 -7 -6 -6 -6 -6 -6 -7 -7 -7 -7 -7 -7 -7 -7 -7 -8 -7 -7 -6 -6 -6
11 10 8 8 7 6 6 7 7 7 5 4 3 4 4 4 4 5 9 10 9 8 7 5 4 4 5 6 5 5 4 4 3 2 1 2 1 1 -0 -1 0 0 -1 -2 -2 -3 -5 -4 -5 -6 -6 -4 -6 -7 -8 -8 -10 -9 -10 -8 -8 -7 -7 -8 -8 -8 -7 -7 -7 -7 -7 -7 -5 -4 -3 -3 -3 -4 -7 -7 -7 -7 -7 -6 -6
10 9 8 7 7 6 6 7 7 6 4 2 2 3 4 4 3 5 6 6 8 7 5 3 2 2 1 1 0 -1 -2 -1 -2 -2 -3 -3 -4 -2 -4 -6 -5 -5 -6 -5 -6 -6 -7 -7 -8 -9 -10 -10 -11 -11 -3 -0 4 -3 -6 -6 -6 -6 -6 -7 -7 -8 -8 -7 -8 -7 -6 -3 -2 -1 -0 1 1 2 1 -2 -5 -5 -5 -5 -6
10 9 8 7 6 6 7 6 6 4 2 1 2 3 4 4 4 5 7 7 7 5 3 -2 -1 -2 -3 -3 -3 -4 -4 -4 -5 -5 -6 -6 -3 -7 -8 -7 -7 -8 -8 -7 -10 -7 -11 -11 -11 -12 -12 -12 -12 -11 -0 5 8 10 6 4 1 -1 -1 -3 -5 -5 -6 -5 -5 -6 -6 -3 -1 1 1 2 3 3 4 4 4 4 3 -1 -3
9 8 7 7 7 7 6 5 4 2 1 1 2 2 3 4 6 8 7 6 2 -0 -2 -4 -4 -5 -5 -5 -5 -5 -5 -6 -6 -6 -6 -8 -9 -9 -9 -8 -9 -9 -7 -9 -11 -10 -12 -12 -12 -13 -13 -11 -12 -3 6 8 9 10 9 5 5 4 2 1 0 -1 -1 -1 -1 -2 -3 -3 -3 -3 -2 -1 1 4 4 4 4 5 5 7 9
7 7 8 7 7 6 4 4 3 1 -0 1 2 2 3 5 6 5 4 1 -2 -3 -5 -6 -5 -6 -6 -6 -7 -7 -7 -8 -8 -8 -9 -10 -11 -9 -11 -11 -12 -11 -10 -11 -8 -8 -12 -13 -13 -11 -13 -12 -12 3 7 9 9 10 10 8 4 4 4 4 3 2 2 1 2 2 1 1 -1 2 2 0 -2 -2 3 3 3 3 4 5 9
7 6 6 7 7 3 3 4 2 1 1 3 3 2 3 4 5 1 -2 -2 -4 -4 -8 -7 -6 -5 -6 -7 -6 -8 -8 -8 -8 -9 -10 -11 -11 -11 -12 -12 -11 -9 -10 -10 -12 -10 -9 -13 -13 -13 -12 -13 -12 -4 6 9 10 11 11 9 2 3 4 4 4 3 3 3 1 0 -2 -4 -4 -2 -0 0 -0 -1 -2 -2 -2 -1 -1 -0 3
6 6 6 6 3 1 0 2 1 1 1 1 1 1 2 1 -1 -2 -5 -5 -7 -8 -8 -6 -6 -6 -6 -6 -6 -8 -9 -8 -9 -10 -11 -11 -11 -12 -10 -11 -12 -8 -9 -10 -12 -13 -12 -12 -13 -13 -14 -13 -12 3 8 9 10 11 10 9 4 3 2 1 1 0 -2 -3 -3 -3 -4 -5 -5 -5 -4 -3 -5 -5 -5 -6 -6 -6 -5 -5 -4
6 6 7 4 1 -0 0 1 3 -0 -0 1 0 -1 -3 -4 -5 -6 -8 -8 -8 -9 -7 -7 -7 -7 -7 -7 -8 -9 -9 -10 -8 -10 -11 -9 -9 -11 -11 -11 -11 -10 -12 -13 -13 -14 -13 -13 -12 -14 -15 -13 -13 6 8 9 9 10 11 4 -0 -2 -2 -3 -3 -4 -3 -2 -2 -4 -5 -5 -6 -5 -2 4 4 0 -2 -4 -5 -5 -5 -5 -5
6 7 5 3 1 1 1 3 -1 -1 -0 0 -1 -3 -5 -8 -8 -8 -9 -8 -8 -8 -7 -8 -7 -7 -7 -8 -9 -9 -10 -10 -10 -10 -11 -10 -9 -10 -9 -12 -12 -9 -9 -12 -12 -12 -13 -13 -13 -13 -14 -13 -13 -2 7 8 9 10 7 2 2 1 0 -1 -3 -6 -7 -7 -6 -7 -6 -5 -6 -6 -2 7 9 5 2 1 -0 -1 -1 -2 -2
7 4 2 1 1 0 1 0 -2 -2 -1 -1 -2 -5 -8 -8 -8 -8 -9 -8 -9 -8 -7 -7 -7 -7 -8 -9 -9 -11 -11 -11 -12 -12 -11 -9 -11 -12 -12 -12 -9 -11 -9 -11 -12 -11 -12 -12 -12 -13 -13 -13 -13 -6 5 8 9 10 7 2 1 1 -1 -2 -3 -5 -6 -7 -6 -2 -2 -5 -7 -7 5 9 9 5 1 1 1 1 0 -0 -0
4 2 -0 -0 0 0 1 -2 -3 -2 -2 -3 -5 -6 -8 -9 -7 -8 -9 -10 -10 -9 -8 -7 -7 -8 -9 -9 -10 -11 -11 -11 -13 -11 -12 -12 -12 -11 -11 -12 -11 -14 -12 -12 -12 -13 -12 -13 -13 -13 -8 -9 -11 -10 4 7 9 10 5 2 1 0 -1 -1 -1 -2 -6 -7 -7 -3 -1 -2 -3 -0 9 7 10 5 2 2 2 1 -1 -2 -2
2 0 0 -0 1 -2 -4 -4 -3 -2 -1 -4 -6 -7 -7 -7 -8 -10 -11 -11 -10 -8 -7 -8 -8 -8 -9 -9 -11 -11 -11 -12 -10 -12 -13 -14 -14 -14 -13 -14 -12 -14 -13 -13 -14 -14 -14 -13 -13 -13 -13 -13 -13 -13 -10 6 8 9 10 2 2 0 -1 -2 -3 -4 -6 -11 -8 -8 -4 4 8 9 10 9 10 10 4 3 3 1 0 -1 0
-1 -0 4 -1 -2 -5 -5 -4 -4 -3 -4 -5 -6 -8 -9 -9 -10 -11 -11 -10 -9 -8 -8 -8 -9 -9 -10 -9 -10 -12 -12 -13 -14 -14 -13 -14 -15 -12 -13 -15 -14 -15 -16 -16 -15 -15 -16 -15 -15 -14 -15 -15 -15 -15 -13 5 7 8 9 7 1 1 -0 -2 -3 -4 -6 -6 -7 -8 -8 -3 3 7 8 9 10 10 8 2 1 -0 0 1 3
1 1 1 -2 -6 -5 -5 -6 -6 -6 -5 -6 -7 -9 -9 -11 -11 -12 -11 -11 -9 -10 -10 -10 -10 -10 -10 -11 -12 -12 -14 -14 -14 -15 -16 -15 -15 -17 -18 -17 -19 -19 -17 -17 -17 -17 -16 -16 -16 -16 -17 -16 -15 -12 -14 -3 5 7 8 9 2 1 0 -1 -2 -3 -4 -5 -6 -6 -7 -4 2 8 8 8 9 9 10 -2 -0 7 9 8 -5
-3 -3 -1 -4 -6 -7 -6 -7 -6 -6 -5 -5 -8 -9 -11 -12 -12 -10 -10 -11 -11 -10 -10 -10 -11 -12 -12 -13 -14 -15 -14 -15 -15 -16 -17 -17 -17 -19 -18 -19 -21 -20 -19 -19 -19 -19 -20 -19 -19 -17 -17 -18 -17 -17 -13 -13 -5 5 7 8 8 5 8 2 1 -1 -2 -2 -2 -3 -3 0 7 8 8 8 9 9 7 4 8 8 6 7 -3
-3 -4 -4 -3 -6 -6 -6 -6 -6 -7 -8 -7 -9 -11 -13 -12 -11 -11 -12 -12 -13 -12 -12 -13 -13 -14 -14 -14 -15 -17 -17 -17 -18 -17 -19 -19 -18 -19 -20 -20 -20 -20 -19 -19 -19 -21 -23 -22 -21 -19 -18 -18 -18 -19 -14 -12 -12 1 6 8 8 8 7 1 0 -0 -0 -2 -6 -7 -6 5 7 7 8 8 9 7 3 7 6 6 3 -1 -13
-4 -4 -3 -4 -7 -8 -7 -7 -7 -7 -10 -11 -11 -12 -13 -13 -12 -12 -13 -13 -13 -14 -15 -15 -16 -16 -16 -17 -17 -18 -18 -20 -18 -20 -20 -17 -18 -20 -18 -19 -21 -20 -20 -20 -20 -22 -21 -21 -21 -21 -19 -19 -18 -19 -20 -16 -13 -11 3 7 8 8 5 2 -1 -4 -6 -7 -1 6 6 5 6 8 9 8 4 -1 2 4 -1 -2 -2 -19 -21
-5 -5 -5 -5 -7 -7 -9 -9 -9 -9 -10 -10 -12 -13 -13 -12 -13 -13 -14 -15 -16 -18 -18 -17 -17 -18 -17 -18 -19 -19 -20 -20 -20 -20 -20 -20 -20 -19 -19 -19 -20 -20 -20 -21 -20 -21 -21 -22 -22 -21 -21 -20 -19 -19 -19 -19 -14 -13 -12 -2 5 1 -2 -3 -3 -5 -3 1 7 4 3 1 -0 -2 -5 -11 -10 -9 -3 -2 -2 -3 -21 -24 -24
-7 -6 -4 -7 -9 -9 -10 -11 -11 -11 -13 -12 -13 -13 -13 -13 -13 -13 -13 -16 -18 -19 -18 -17 -17 -17 -18 -19 -20 -20 -17 -18 -21 -21 -21 -20 -21 -22 -21 -20 -20 -21 -21 -21 -21 -21 -21 -21 -21 -21 -21 -20 -19 -19 -18 -18 -18 -18 -17 -16 -15 -14 -10 -7 -8 -11 -7 -10 -9 -7 -7 -5 -3 -2 -1 -0 -0 -1 -8 -12 -19 -20 -25 -25 -23
-6 -6 -6 -8 -9 -10 -12 -12 -10 -11 -13 -13 -14 -14 -14 -14 -15 -14 -18 -19 -19 -19 -18 -18 -18 -18 -18 -18 -19 -16 -16 -18 -18 -20 -20 -20 -20 -22 -21 -20 -20 -20 -22 -21 -21 -21 -21 -20 -21 -20 -20 -20 -19 -18 -18 -17 -17 -16 -16 -16 -16 -15 -16 -15 -15 -15 -15 -14 -12 -7 -8 -11 -12 -13 -14 -17 -17 -17 -16 -16 -21 -26 -24 -22 -15
-7 -8 -8 -7 -9 -11 -11 -12 -11 -12 -13 -14 -15 -14 -14 -14 -13 -17 -20 -20 -19 -18 -18 -20 -20 -19 -18 -17 -17 -18 -19 -19 -19 -19 -20 -20 -20 -20 -19 -19 -19 -18 -18 -18 -19 -18 -17 -18 -18 -17 -17 -17 -16 -16 -15 -11 -13 -10 -12 -13 -13 -14 -15 -14 -11 -8 -10 -12 -14 -14 -15 -14 -16 -15 -14 -15 -18 -19 -19 -21 -21 -26 -30 -29 -25
-8 -7 -7 -9 -10 -11 -12 -12 -11 -12 -13 -14 -15 -14 -16 -14 -17 -19 -21 -20 -17 -18 -21 -19 -18 -19 -18 -18 -18 -19 -21 -19 -20 -20 -19 -19 -16 -12 -13 -16 -15 -9 -8 -5 -1 -11 -13 -13 -12 -12 -12 -13 -13 -12 -0 7 8 5 1 1 -0 -0 -1 -4 -4 -3 -3 -7 -8 -10 -10 -12 -13 -15 -15 -15 -15 -18 -18 -20 -25 -16 -23 -28 -27
-8 -9 -9 -9 -10 -11 -13 -13 -12 -13 -13 -14 -15 -16 -17 -17 -16 -17 -21 -20 -21 -20 -19 -18 -17 -19 -17 -16 -17 -19 -19 -21 -21 -21 -21 -20 -19 -18 -2 2 -4 -5 -5 4 7 8 8 3 0 -2 -4 -4 -4 0 7 4 6 6 1 0 0 0 0 -0 -1 -3 -5 -5 -6 -7 -9 -9 -10 -11 -13 -13 -16 -20 -20 -21 -20 -25 -25 -24 -20